Location: Baggett Branch
(32.6074°N, 97.0167°W)
Time: 10:33:52
(UTC+00:00)

NOSS 3-1 (C) - Pass Details

Date: 10 February 2026
Orbit: 618 x 1583 km, 63.4° (Epoch: 10 January)

Event Time Altitude Azimuth Distance (km) Brightness Sun altitude
Exits shadow 12:00:33 11° 220° (SW) 1,918 4.8 -16.3°
Maximum altitude 12:04:44 64° 302° (WNW) 734 2.6 -15.4°
Drops below altitude 10° 12:09:41 10° 24° (NNE) 2,257 5.6 -14.4°
Sets 12:12:19 0° 28° (NNE) 3,308 6.6 -13.8°
